| time (UTC) | temp C | wind direction | speed KPH | gust KPH | rain 1hr cm | rain 24hr cm | rain mn cm | humidity % | barometer mb |
| 20260902184731 | 33 | 48 | 9.7 | 9.7 | 0.00 | 0.00 | 0.00 | 64 | 1014.9 |
| 20260902184226 | 32 | 104 | 4.8 | 11.3 | 0.00 | 0.00 | 0.00 | 65 | 1015.2 |
| 20260902183722 | 32 | 104 | 4.8 | 16.1 | 0.00 | 0.00 | 0.00 | 65 | 1015.0 |
| 20260902183218 | 33 | 108 | 4.8 | 8.0 | 0.00 | 0.00 | 0.00 | 63 | 1014.8 |
| 20260902182714 | 33 | 63 | 6.4 | 12.9 | 0.00 | 0.00 | 0.00 | 63 | 1015.1 |
| 20260902182210 | 32 | 155 | 4.8 | 11.3 | 0.00 | 0.00 | 0.00 | 65 | 1015.1 |
| 20260902181705 | 33 | 86 | 4.8 | 12.9 | 0.00 | 0.00 | 0.00 | 64 | 1015.0 |
| 20260902181200 | 32 | 72 | 4.8 | 11.3 | 0.00 | 0.00 | 0.00 | 65 | 1015.1 |
| 20260902180700 | 32 | 104 | 6.4 | 8.0 | 0.00 | 0.00 | 0.00 | 64 | 1015.1 |
| 20260902180155 | 32 | 94 | 4.8 | 6.4 | 0.00 | 0.00 | 0.00 | 63 | 1015.2 |
| 20260902175656 | 32 | 116 | 3.2 | 9.7 | 0.00 | 0.00 | 0.00 | 64 | 1015.1 |
| 20260902175151 | 32 | 58 | 8.0 | 8.0 | 0.00 | 0.00 | 0.00 | 62 | 1015.2 |
| 20260902174647 | 32 | 49 | 3.2 | 9.7 | 0.00 | 0.00 | 0.00 | 64 | 1015.2 |
| 20260902174143 | 32 | 65 | 8.0 | 16.1 | 0.00 | 0.00 | 0.00 | 65 | 1015.1 |
| 20260902173638 | 32 | 136 | 4.8 | 8.0 | 0.00 | 0.00 | 0.00 | 66 | 1015.3 |
| 20260902173133 | 31 | 84 | 3.2 | 12.9 | 0.00 | 0.00 | 0.00 | 66 | 1015.3 |
| 20260902172632 | 32 | 95 | 6.4 | 16.1 | 0.00 | 0.00 | 0.00 | 65 | 1015.4 |
| 20260902172127 | 32 | 112 | 4.8 | 9.7 | 0.00 | 0.00 | 0.00 | 66 | 1015.2 |
| 20260902171622 | 32 | 8 | 3.2 | 6.4 | 0.00 | 0.00 | 0.00 | 67 | 1015.4 |
| 20260902171118 | 32 | 81 | 3.2 | 8.0 | 0.00 | 0.00 | 0.00 | 65 | 1015.4 |
| 20260902170614 | 32 | 87 | 3.2 | 9.7 | 0.00 | 0.00 | 0.00 | 66 | 1015.5 |
| 20260902170109 | 32 | 29 | 11.3 | 11.3 | 0.00 | 0.00 | 0.00 | 66 | 1015.4 |
| 20260902165608 | 31 | 111 | 4.8 | 12.9 | 0.00 | 0.00 | 0.00 | 68 | 1015.6 |
| 20260902165103 | 31 | 66 | 8.0 | 8.0 | 0.00 | 0.00 | 0.00 | 67 | 1015.6 |
| 20260902164558 | 32 | 101 | 4.8 | 8.0 | 0.00 | 0.00 | 0.00 | 66 | 1015.7 |
| 20260902164057 | 31 | 74 | 8.0 | 8.0 | 0.00 | 0.00 | 0.00 | 68 | 1015.8 |
| 20260902163553 | 31 | 102 | 3.2 | 9.7 | 0.00 | 0.00 | 0.00 | 67 | 1015.9 |
| 20260902163051 | 32 | 87 | 6.4 | 9.7 | 0.00 | 0.00 | 0.00 | 68 | 1015.9 |
| 20260902162545 | 32 | 346 | 4.8 | 17.7 | 0.00 | 0.00 | 0.00 | 67 | 1015.9 |
| 20260902162040 | 32 | 97 | 3.2 | 9.7 | 0.00 | 0.00 | 0.00 | 66 | 1015.9 |
| 20260902161540 | 31 | 68 | 4.8 | 8.0 | 0.00 | 0.00 | 0.00 | 68 | 1016.3 |
| 20260902161036 | 32 | 34 | 4.8 | 9.7 | 0.00 | 0.00 | 0.00 | 66 | 1016.4 |
| 20260902160532 | 32 | 29 | 3.2 | 9.7 | 0.00 | 0.00 | 0.00 | 67 | 1016.0 |
| 20260902160027 | 32 | 48 | 6.4 | 9.7 | 0.00 | 0.00 | 0.00 | 68 | 1016.2 |
| 20260902155520 | 32 | 140 | 4.8 | 6.4 | 0.00 | 0.00 | 0.00 | 70 | 1016.3 |
| 20260902155019 | 31 | 75 | 4.8 | 8.0 | 0.00 | 0.00 | 0.00 | 69 | 1016.3 |
| 20260902154515 | 31 | 87 | 3.2 | 11.3 | 0.00 | 0.00 | 0.00 | 70 | 1016.3 |
| 20260902154009 | 30 | 50 | 1.6 | 11.3 | 0.00 | 0.00 | 0.00 | 70 | 1016.5 |
| 20260902153508 | 31 | 75 | 4.8 | 6.4 | 0.00 | 0.00 | 0.00 | 70 | 1016.4 |
| 20260902153004 | 31 | 69 | 4.8 | 16.1 | 0.00 | 0.00 | 0.00 | 68 | 1016.5 |
| 20260902152501 | 30 | 79 | 3.2 | 8.0 | 0.00 | 0.00 | 0.00 | 71 | 1016.7 |
| 20260902151955 | 30 | 68 | 3.2 | 6.4 | 0.00 | 0.00 | 0.00 | 71 | 1016.4 |
| 20260902151451 | 30 | 54 | 4.8 | 9.7 | 0.00 | 0.00 | 0.00 | 71 | 1016.6 |
| 20260902150950 | 30 | 41 | 11.3 | 11.3 | 0.00 | 0.00 | 0.00 | 70 | 1016.4 |
| 20260902150446 | 30 | 65 | 4.8 | 11.3 | 0.00 | 0.00 | 0.00 | 71 | 1016.6 |
| 20260902145946 | 30 | 98 | 3.2 | 8.0 | 0.00 | 0.00 | 0.00 | 70 | 1016.6 |
| 20260902145441 | 30 | 84 | 4.8 | 8.0 | 0.00 | 0.00 | 0.00 | 71 | 1016.4 |
| 20260902144936 | 30 | 64 | 3.2 | 11.3 | 0.00 | 0.00 | 0.00 | 72 | 1016.5 |
| 20260902144432 | 30 | 103 | 3.2 | 4.8 | 0.00 | 0.00 | 0.00 | 72 | 1016.3 |
| 20260902143932 | 30 | 47 | 6.4 | 8.0 | 0.00 | 0.00 | 0.00 | 72 | 1016.3 |
| 20260902143427 | 30 | 98 | 4.8 | 9.7 | 0.00 | 0.00 | 0.00 | 73 | 1016.2 |
| 20260902142922 | 30 | 90 | 4.8 | 6.4 | 0.00 | 0.00 | 0.00 | 73 | 1016.1 |
| 20260902142419 | 30 | 136 | 3.2 | 8.0 | 0.00 | 0.00 | 0.00 | 75 | 1016.2 |
| 20260902141914 | 30 | 106 | 1.6 | 4.8 | 0.00 | 0.00 | 0.00 | 75 | 1016.0 |
| 20260902141409 | 30 | 77 | 3.2 | 8.0 | 0.00 | 0.00 | 0.00 | 74 | 1016.1 |
| 20260902140908 | 30 | 98 | 3.2 | 4.8 | 0.00 | 0.00 | 0.00 | 74 | 1016.2 |
| 20260902140404 | 30 | 90 | 1.6 | 4.8 | 0.00 | 0.00 | 0.00 | 77 | 1016.6 |
| 20260902135904 | 30 | 50 | 3.2 | 8.0 | 0.00 | 0.00 | 0.00 | 77 | 1016.3 |
| 20260902135400 | 29 | 26 | 4.8 | 8.0 | 0.00 | 0.00 | 0.00 | 77 | 1016.1 |
| 20260902134858 | 29 | 126 | 3.2 | 4.8 | 0.00 | 0.00 | 0.00 | 81 | 1016.2 |
| 20260902134354 | 28 | 49 | 4.8 | 6.4 | 0.00 | 0.00 | 0.00 | 81 | 1016.1 |
| 20260902133849 | 28 | 91 | 1.6 | 8.0 | 0.00 | 0.00 | 0.00 | 82 | 1016.1 |
| 20260902133349 | 28 | 112 | 3.2 | 4.8 | 0.00 | 0.00 | 0.00 | 84 | 1016.0 |
| 20260902132844 | 28 | 89 | 3.2 | 4.8 | 0.00 | 0.00 | 0.00 | 86 | 1016.3 |
| 20260902132339 | 28 | 250 | 0.0 | 3.2 | 0.00 | 0.00 | 0.00 | 88 | 1016.3 |
| 20260902131835 | 27 | 70 | 3.2 | 4.8 | 0.00 | 0.00 | 0.00 | 89 | 1016.1 |
| 20260902131332 | 27 | 321 | 4.8 | 4.8 | 0.00 | 0.00 | 0.00 | 89 | 1016.0 |
| 20260902130830 | 27 | 92 | 4.8 | 6.4 | 0.00 | 0.00 | 0.00 | 89 | 1016.0 |
| 20260902130326 | 27 | 88 | 0.0 | 3.2 | 0.00 | 0.00 | 0.00 | 90 | 1015.8 |
| 20260902125822 | 27 | 303 | 4.8 | 4.8 | 0.00 | 0.00 | 0.00 | 90 | 1016.0 |
| 20260902125317 | 27 | 53 | 4.8 | 6.4 | 0.00 | 0.00 | 0.00 | 91 | 1016.1 |
| 20260902124813 | 27 | 127 | 0.0 | 6.4 | 0.00 | 0.00 | 0.00 | 91 | 1015.9 |
| 20260902124309 | 27 | 284 | 1.6 | 3.2 | 0.00 | 0.00 | 0.00 | 92 | 1016.1 |
| 20260902123804 | 27 | 143 | 0.0 | 4.8 | 0.00 | 0.00 | 0.00 | 92 | 1016.2 |
| 20260902123300 | 27 | 130 | 0.0 | 3.2 | 0.00 | 0.00 | 0.00 | 93 | 1016.1 |
| 20260902122759 | 26 | 142 | 3.2 | 3.2 | 0.00 | 0.00 | 0.00 | 93 | 1015.9 |
| 20260902122254 | 26 | 97 | 0.0 | 4.8 | 0.00 | 0.00 | 0.00 | 94 | 1016.0 |
| 20260902121754 | 26 | 319 | 3.2 | 3.2 | 0.00 | 0.00 | 0.00 | 94 | 1016.0 |
| 20260902121249 | 26 | 64 | 1.6 | 3.2 | 0.00 | 0.00 | 0.00 | 94 | 1016.0 |
| 20260902120745 | 26 | 84 | 1.6 | 4.8 | 0.00 | 0.00 | 0.00 | 94 | 1015.9 |
| 20260902120241 | 26 | 149 | 0.0 | 4.8 | 0.00 | 0.00 | 0.00 | 95 | 1016.1 |
| 20260902115736 | 26 | 319 | 1.6 | 3.2 | 0.00 | 0.00 | 0.00 | 95 | 1015.7 |
| 20260902115232 | 26 | 36 | 0.0 | 4.8 | 0.00 | 0.00 | 0.00 | 96 | 1015.8 |
| 20260902114728 | 26 | 265 | 0.0 | 3.2 | 0.00 | 0.00 | 0.00 | 96 | 1015.9 |
| 20260902114223 | 26 | 123 | 0.0 | 1.6 | 0.00 | 0.00 | 0.00 | 96 | 1015.8 |
| 20260902113718 | 26 | 199 | 0.0 | 1.6 | 0.00 | 0.00 | 0.00 | 96 | 1015.8 |
| 20260902113213 | 26 | 250 | 0.0 | 1.6 | 0.00 | 0.00 | 0.00 | 96 | 1016.0 |
| 20260902112713 | 26 | 260 | 3.2 | 3.2 | 0.00 | 0.00 | 0.00 | 96 | 1015.7 |
| 20260902112210 | 26 | 123 | 0.0 | 1.6 | 0.00 | 0.00 | 0.00 | 96 | 1015.7 |
| 20260902111705 | 26 | 98 | 0.0 | 1.6 | 0.00 | 0.00 | 0.00 | 96 | 1015.5 |
| 20260902111201 | 26 | 2 | 0.0 | 1.6 | 0.00 | 0.00 | 0.00 | 96 | 1015.7 |
| 20260902110656 | 26 | 85 | 0.0 | 1.6 | 0.00 | 0.00 | 0.00 | 96 | 1015.6 |
| 20260902110152 | 26 | 267 | 0.0 | 4.8 | 0.00 | 0.00 | 0.00 | 96 | 1015.4 |
| 20260902105652 | 26 | 46 | 3.2 | 3.2 | 0.00 | 0.00 | 0.00 | 96 | 1015.5 |
| 20260902105148 | 26 | 36 | 0.0 | 0.0 | 0.00 | 0.00 | 0.00 | 96 | 1015.6 |
| 20260902104643 | 26 | 111 | 0.0 | 1.6 | 0.00 | 0.00 | 0.00 | 96 | 1015.6 |
| 20260902104138 | 26 | 232 | 0.0 | 1.6 | 0.00 | 0.00 | 0.00 | 96 | 1015.5 |
| 20260902103637 | 26 | 223 | 0.0 | 1.6 | 0.00 | 0.00 | 0.00 | 96 | 1015.4 |
| 20260902103132 | 26 | 22 | 1.6 | 3.2 | 0.00 | 0.00 | 0.00 | 97 | 1015.3 |
| 20260902102629 | 26 | 106 | 0.0 | 1.6 | 0.00 | 0.00 | 0.00 | 97 | 1015.3 |
| 20260902102126 | 26 | 172 | 0.0 | 1.6 | 0.00 | 0.00 | 0.00 | 97 | 1015.3 |
| 20260902101621 | 26 | 199 | 0.0 | 3.2 | 0.00 | 0.00 | 0.00 | 97 | 1015.2 |
| 20260902101120 | 26 | 43 | 0.0 | 1.6 | 0.00 | 0.00 | 0.00 | 97 | 1015.3 |
| 20260902100615 | 26 | 282 | 1.6 | 3.2 | 0.00 | 0.00 | 0.00 | 97 | 1015.1 |
| 20260902100110 | 25 | 72 | 0.0 | 1.6 | 0.00 | 0.00 | 0.00 | 97 | 1015.2 |
| 20260902095609 | 25 | 161 | 0.0 | 1.6 | 0.00 | 0.00 | 0.00 | 97 | 1015.4 |
| 20260902095108 | 26 | 123 | 0.0 | 0.0 | 0.00 | 0.00 | 0.00 | 97 | 1015.0 |
| 20260902094604 | 25 | 31 | 0.0 | 3.2 | 0.00 | 0.00 | 0.00 | 97 | 1014.9 |
| 20260902094059 | 25 | 177 | 0.0 | 1.6 | 0.00 | 0.00 | 0.00 | 96 | 1014.9 |
| 20260902093553 | 25 | 223 | 0.0 | 0.0 | 0.00 | 0.00 | 0.00 | 97 | 1015.0 |
| 20260902093048 | 25 | 311 | 1.6 | 1.6 | 0.00 | 0.00 | 0.00 | 96 | 1014.8 |
| 20260902092538 | 25 | 56 | 0.0 | 0.0 | 0.00 | 0.00 | 0.00 | 96 | 1015.0 |
| 20260902092033 | 25 | 278 | 0.0 | 0.0 | 0.00 | 0.00 | 0.00 | 96 | 1014.9 |
| 20260902091528 | 25 | 13 | 0.0 | 0.0 | 0.00 | 0.00 | 0.00 | 96 | 1014.8 |
| 20260902091024 | 25 | 290 | 0.0 | 1.6 | 0.00 | 0.00 | 0.00 | 96 | 1014.9 |
| 20260902090520 | 26 | 110 | 0.0 | 1.6 | 0.00 | 0.00 | 0.00 | 96 | 1014.8 |
| 20260902090019 | 26 | 152 | 0.0 | 0.0 | 0.00 | 0.00 | 0.00 | 96 | 1014.7 |
| 20260902085519 | 26 | 205 | 0.0 | 1.6 | 0.00 | 0.00 | 0.00 | 96 | 1014.6 |
| 20260902085014 | 26 | 25 | 0.0 | 0.0 | 0.00 | 0.00 | 0.00 | 96 | 1014.7 |
| 20260902084510 | 26 | 236 | 0.0 | 3.2 | 0.00 | 0.00 | 0.00 | 96 | 1014.7 |
| 20260902084005 | 26 | 31 | 0.0 | 1.6 | 0.00 | 0.00 | 0.00 | 96 | 1014.8 |
| 20260902083501 | 26 | 183 | 0.0 | 0.0 | 0.00 | 0.00 | 0.00 | 96 | 1014.9 |
| 20260902082955 | 26 | 183 | 0.0 | 0.0 | 0.00 | 0.00 | 0.00 | 95 | 1015.0 |
| 20260902082451 | 26 | 183 | 0.0 | 0.0 | 0.00 | 0.00 | 0.00 | 95 | 1015.1 |
| 20260902081947 | 26 | 193 | 0.0 | 0.0 | 0.00 | 0.00 | 0.00 | 95 | 1015.2 |
| 20260902081443 | 26 | 250 | 0.0 | 0.0 | 0.00 | 0.00 | 0.00 | 95 | 1014.9 |
| 20260902080938 | 26 | 3 | 0.0 | 0.0 | 0.00 | 0.00 | 0.00 | 95 | 1015.0 |
| 20260902080434 | 26 | 123 | 0.0 | 0.0 | 0.00 | 0.00 | 0.00 | 95 | 1015.1 |
| 20260902075933 | 26 | 6 | 0.0 | 3.2 | 0.00 | 0.00 | 0.00 | 95 | 1015.0 |
| 20260902075430 | 26 | 43 | 0.0 | 1.6 | 0.00 | 0.00 | 0.00 | 95 | 1015.0 |
| 20260902074925 | 26 | 10 | 0.0 | 0.0 | 0.00 | 0.00 | 0.00 | 95 | 1015.0 |
| 20260902074420 | 26 | 10 | 0.0 | 0.0 | 0.00 | 0.00 | 0.00 | 95 | 1015.0 |
| 20260902073915 | 26 | 31 | 0.0 | 0.0 | 0.00 | 0.00 | 0.00 | 95 | 1014.9 |
| 20260902073411 | 26 | 140 | 0.0 | 0.0 | 0.00 | 0.00 | 0.00 | 95 | 1015.0 |
| 20260902072907 | 26 | 41 | 0.0 | 1.6 | 0.00 | 0.00 | 0.00 | 95 | 1015.0 |
| 20260902072403 | 26 | 285 | 0.0 | 1.6 | 0.00 | 0.00 | 0.00 | 95 | 1015.1 |
| 20260902071859 | 26 | 25 | 0.0 | 0.0 | 0.00 | 0.00 | 0.00 | 95 | 1015.0 |
| 20260902071358 | 26 | 31 | 0.0 | 0.0 | 0.00 | 0.00 | 0.00 | 95 | 1014.9 |
| 20260902070855 | 26 | 186 | 0.0 | 0.0 | 0.00 | 0.00 | 0.00 | 94 | 1014.7 |
| 20260902070350 | 26 | 50 | 0.0 | 0.0 | 0.00 | 0.00 | 0.00 | 94 | 1015.1 |
| 20260902065848 | 26 | 6 | 0.0 | 0.0 | 0.00 | 0.00 | 0.00 | 94 | 1014.8 |
| 20260902065344 | 26 | 56 | 0.0 | 1.6 | 0.00 | 0.00 | 0.00 | 94 | 1015.0 |
| 20260902064839 | 26 | 18 | 0.0 | 1.6 | 0.00 | 0.00 | 0.00 | 94 | 1014.8 |
| 20260902064335 | 26 | 110 | 0.0 | 0.0 | 0.00 | 0.00 | 0.00 | 94 | 1014.9 |
| 20260902063825 | 26 | 137 | 0.0 | 0.0 | 0.00 | 0.00 | 0.00 | 94 | 1015.0 |
| 20260902063324 | 26 | 137 | 0.0 | 0.0 | 0.00 | 0.00 | 0.00 | 94 | 1014.9 |
| 20260902062819 | 26 | 84 | 0.0 | 0.0 | 0.00 | 0.00 | 0.00 | 94 | 1014.8 |
| 20260902062314 | 26 | 84 | 0.0 | 1.6 | 0.00 | 0.00 | 0.00 | 94 | 1014.7 |
| 20260902061813 | 26 | 216 | 0.0 | 0.0 | 0.00 | 0.00 | 0.00 | 94 | 1014.7 |
| 20260902061309 | 26 | 198 | 0.0 | 0.0 | 0.00 | 0.00 | 0.00 | 94 | 1014.7 |
| 20260902060805 | 26 | 6 | 0.0 | 0.0 | 0.00 | 0.00 | 0.00 | 94 | 1014.6 |
| 20260902060301 | 26 | 19 | 0.0 | 0.0 | 0.00 | 0.00 | 0.00 | 94 | 1014.7 |
| 20260902055756 | 26 | 25 | 0.0 | 0.0 | 0.00 | 0.00 | 0.00 | 94 | 1014.7 |
| 20260902055253 | 26 | 25 | 0.0 | 0.0 | 0.00 | 0.00 | 0.00 | 94 | 1014.9 |
| 20260902054752 | 26 | 25 | 0.0 | 0.0 | 0.00 | 0.00 | 0.00 | 94 | 1015.0 |
| 20260902054248 | 26 | 6 | 0.0 | 0.0 | 0.00 | 0.00 | 0.00 | 94 | 1015.0 |
| 20260902053743 | 26 | 6 | 0.0 | 0.0 | 0.00 | 0.00 | 0.00 | 94 | 1014.8 |
| 20260902053243 | 26 | 6 | 0.0 | 0.0 | 0.00 | 0.00 | 0.00 | 94 | 1015.2 |
| 20260902052737 | 26 | 198 | 0.0 | 0.0 | 0.00 | 0.00 | 0.00 | 94 | 1015.2 |
| 20260902052233 | 26 | 198 | 0.0 | 0.0 | 0.00 | 0.00 | 0.00 | 94 | 1015.1 |
| 20260902051732 | 26 | 198 | 0.0 | 0.0 | 0.00 | 0.00 | 0.00 | 93 | 1015.0 |
| 20260902051226 | 26 | 130 | 0.0 | 0.0 | 0.00 | 0.00 | 0.00 | 93 | 1014.9 |
| 20260902050721 | 26 | 6 | 0.0 | 0.0 | 0.00 | 0.00 | 0.00 | 93 | 1015.0 |
| 20260902050216 | 26 | 6 | 0.0 | 0.0 | 0.00 | 0.00 | 0.00 | 93 | 1015.2 |
| 20260902045716 | 26 | 161 | 0.0 | 0.0 | 0.00 | 0.00 | 0.00 | 92 | 1014.9 |
| 20260902045213 | 26 | 85 | 0.0 | 0.0 | 0.00 | 0.00 | 0.00 | 92 | 1015.1 |
| 20260902044708 | 26 | 144 | 0.0 | 0.0 | 0.00 | 0.00 | 0.00 | 92 | 1015.2 |
| 20260902044204 | 26 | 144 | 0.0 | 0.0 | 0.00 | 0.00 | 0.00 | 92 | 1015.3 |
| 20260902043658 | 26 | 356 | 0.0 | 0.0 | 0.00 | 0.00 | 0.00 | 91 | 1015.5 |
| 20260902043154 | 27 | 6 | 0.0 | 1.6 | 0.00 | 0.00 | 0.00 | 91 | 1015.3 |
| 20260902042653 | 27 | 123 | 0.0 | 0.0 | 0.00 | 0.00 | 0.00 | 90 | 1015.4 |
| 20260902042148 | 27 | 36 | 0.0 | 0.0 | 0.00 | 0.00 | 0.00 | 90 | 1015.3 |
| 20260902041648 | 27 | 110 | 0.0 | 0.0 | 0.00 | 0.00 | 0.00 | 90 | 1015.5 |
| 20260902041143 | 27 | 31 | 0.0 | 0.0 | 0.00 | 0.00 | 0.00 | 90 | 1015.5 |
| 20260902040642 | 27 | 8 | 0.0 | 1.6 | 0.00 | 0.00 | 0.00 | 90 | 1015.5 |
| 20260902040137 | 27 | 134 | 0.0 | 1.6 | 0.00 | 0.00 | 0.00 | 89 | 1015.3 |
| 20260902035636 | 27 | 186 | 0.0 | 1.6 | 0.00 | 0.00 | 0.00 | 89 | 1015.6 |
| 20260902035131 | 27 | 18 | 0.0 | 1.6 | 0.00 | 0.00 | 0.00 | 90 | 1015.5 |
| 20260902034630 | 27 | 116 | 0.0 | 0.0 | 0.00 | 0.00 | 0.00 | 89 | 1015.5 |
| 20260902034125 | 27 | 140 | 0.0 | 1.6 | 0.00 | 0.00 | 0.00 | 89 | 1015.4 |
| 20260902033624 | 27 | 211 | 0.0 | 0.0 | 0.00 | 0.00 | 0.00 | 89 | 1015.5 |
| 20260902033119 | 27 | 123 | 0.0 | 0.0 | 0.00 | 0.00 | 0.00 | 89 | 1015.6 |
| 20260902032618 | 27 | 210 | 0.0 | 0.0 | 0.00 | 0.00 | 0.00 | 89 | 1015.6 |
| 20260902032112 | 27 | 6 | 0.0 | 1.6 | 0.00 | 0.00 | 0.00 | 89 | 1015.9 |
| 20260902031607 | 27 | 205 | 0.0 | 0.0 | 0.00 | 0.00 | 0.00 | 89 | 1015.7 |
| 20260902031103 | 27 | 110 | 0.0 | 0.0 | 0.00 | 0.00 | 0.00 | 89 | 1015.8 |
| 20260902030558 | 27 | 110 | 0.0 | 0.0 | 0.00 | 0.00 | 0.00 | 89 | 1015.7 |
| 20260902030058 | 27 | 98 | 0.0 | 0.0 | 0.00 | 0.00 | 0.00 | 89 | 1015.9 |
| 20260902025558 | 27 | 356 | 0.0 | 0.0 | 0.00 | 0.00 | 0.00 | 90 | 1015.9 |
| 20260902025053 | 27 | 85 | 0.0 | 0.0 | 0.00 | 0.00 | 0.00 | 89 | 1016.0 |
| 20260902024549 | 27 | 85 | 0.0 | 0.0 | 0.00 | 0.00 | 0.00 | 89 | 1015.8 |
| 20260902024048 | 27 | 123 | 0.0 | 1.6 | 0.00 | 0.00 | 0.00 | 88 | 1016.0 |
| 20260902023544 | 27 | 346 | 0.0 | 0.0 | 0.00 | 0.00 | 0.00 | 88 | 1015.7 |
| 20260902023039 | 27 | 94 | 0.0 | 0.0 | 0.00 | 0.00 | 0.00 | 88 | 1015.9 |
| 20260902022533 | 27 | 3 | 0.0 | 1.6 | 0.00 | 0.00 | 0.00 | 88 | 1016.0 |
| 20260902022029 | 27 | 14 | 1.6 | 1.6 | 0.00 | 0.00 | 0.00 | 88 | 1015.9 |
| 20260902021525 | 27 | 221 | 0.0 | 1.6 | 0.00 | 0.00 | 0.00 | 88 | 1016.0 |
| 20260902021025 | 27 | 308 | 0.0 | 1.6 | 0.00 | 0.00 | 0.00 | 87 | 1015.8 |
| 20260902020520 | 27 | 58 | 0.0 | 1.6 | 0.00 | 0.00 | 0.00 | 87 | 1016.1 |
| 20260902020016 | 27 | 34 | 0.0 | 1.6 | 0.00 | 0.00 | 0.00 | 87 | 1015.8 |
| 20260902015512 | 27 | 42 | 0.0 | 1.6 | 0.00 | 0.00 | 0.00 | 87 | 1015.8 |
| 20260902015007 | 27 | 110 | 0.0 | 3.2 | 0.00 | 0.00 | 0.00 | 87 | 1015.7 |
| 20260902014503 | 27 | 237 | 0.0 | 3.2 | 0.00 | 0.00 | 0.00 | 87 | 1015.9 |
| 20260902013958 | 27 | 210 | 0.0 | 1.6 | 0.00 | 0.00 | 0.00 | 87 | 1015.6 |
| 20260902013453 | 27 | 265 | 0.0 | 3.2 | 0.00 | 0.00 | 0.00 | 87 | 1015.6 |
| 20260902012948 | 27 | 40 | 3.2 | 3.2 | 0.00 | 0.00 | 0.00 | 87 | 1015.6 |
| 20260902012444 | 27 | 87 | 0.0 | 0.0 | 0.00 | 0.00 | 0.00 | 87 | 1015.7 |
| 20260902011939 | 27 | 31 | 0.0 | 3.2 | 0.00 | 0.00 | 0.00 | 87 | 1015.5 |
| 20260902011435 | 27 | 207 | 0.0 | 1.6 | 0.00 | 0.00 | 0.00 | 87 | 1015.4 |
| 20260902010934 | 27 | 216 | 0.0 | 1.6 | 0.00 | 0.00 | 0.00 | 86 | 1015.3 |
| 20260902010429 | 27 | 184 | 1.6 | 3.2 | 0.00 | 0.00 | 0.00 | 86 | 1015.3 |
| 20260902005928 | 27 | 150 | 1.6 | 1.6 | 0.00 | 0.00 | 0.00 | 86 | 1015.3 |
| 20260902005427 | 27 | 134 | 0.0 | 0.0 | 0.00 | 0.00 | 0.00 | 86 | 1015.4 |
| 20260902004924 | 27 | 186 | 0.0 | 3.2 | 0.00 | 0.00 | 0.00 | 85 | 1015.3 |
| 20260902004423 | 27 | 162 | 1.6 | 3.2 | 0.00 | 0.00 | 0.00 | 86 | 1015.2 |
| 20260902003918 | 27 | 144 | 0.0 | 3.2 | 0.00 | 0.00 | 0.00 | 85 | 1015.2 |
| 20260902003413 | 27 | 36 | 1.6 | 3.2 | 0.00 | 0.00 | 0.00 | 85 | 1015.2 |
| 20260902002909 | 27 | 205 | 0.0 | 4.8 | 0.00 | 0.00 | 0.00 | 85 | 1015.1 |
| 20260902002409 | 27 | 70 | 0.0 | 3.2 | 0.00 | 0.00 | 0.00 | 85 | 1015.2 |
| 20260902001903 | 27 | 161 | 0.0 | 1.6 | 0.00 | 0.00 | 0.00 | 85 | 1015.6 |
| 20260902001358 | 27 | 124 | 0.0 | 1.6 | 0.00 | 0.00 | 0.00 | 85 | 1015.4 |
| 20260902000853 | 28 | 23 | 4.8 | 4.8 | 0.00 | 0.00 | 0.00 | 84 | 1015.4 |
| 20260902000353 | 28 | 17 | 4.8 | 4.8 | 0.00 | 0.00 | 0.00 | 83 | 1015.3 |
| 20260901235848 | 28 | 98 | 0.0 | 1.6 | 0.00 | 0.00 | 0.00 | 83 | 1015.4 |
| 20260901235343 | 28 | 180 | 1.6 | 3.2 | 0.00 | 0.00 | 0.00 | 82 | 1015.3 |
| 20260901234838 | 28 | 116 | 0.0 | 1.6 | 0.00 | 0.00 | 0.00 | 82 | 1015.1 |
| 20260901234332 | 28 | 172 | 0.0 | 3.2 | 0.00 | 0.00 | 0.00 | 82 | 1015.4 |
| 20260901233827 | 28 | 359 | 0.0 | 3.2 | 0.00 | 0.00 | 0.00 | 82 | 1015.3 |
| 20260901233323 | 28 | 10 | 0.0 | 3.2 | 0.00 | 0.00 | 0.00 | 81 | 1015.2 |
| 20260901232819 | 28 | 46 | 0.0 | 4.8 | 0.00 | 0.00 | 0.00 | 81 | 1015.1 |
| 20260901232313 | 28 | 18 | 0.0 | 4.8 | 0.00 | 0.00 | 0.00 | 80 | 1015.2 |
| 20260901231809 | 28 | 20 | 0.0 | 3.2 | 0.00 | 0.00 | 0.00 | 79 | 1015.1 |
| 20260901231305 | 28 | 79 | 0.0 | 4.8 | 0.00 | 0.00 | 0.00 | 79 | 1015.2 |
| 20260901230802 | 28 | 111 | 4.8 | 4.8 | 0.00 | 0.00 | 0.00 | 78 | 1015.2 |
| 20260901230301 | 28 | 153 | 0.0 | 4.8 | 0.00 | 0.00 | 0.00 | 78 | 1015.0 |
| 20260901225756 | 28 | 37 | 4.8 | 4.8 | 0.00 | 0.00 | 0.00 | 77 | 1015.0 |
| 20260901225250 | 29 | 100 | 0.0 | 3.2 | 0.00 | 0.00 | 0.00 | 77 | 1015.2 |
| 20260901224746 | 29 | 149 | 3.2 | 3.2 | 0.00 | 0.00 | 0.00 | 76 | 1015.0 |
| 20260901224242 | 30 | 125 | 0.0 | 3.2 | 0.00 | 0.00 | 0.00 | 75 | 1015.0 |
| 20260901223738 | 30 | 217 | 0.0 | 3.2 | 0.00 | 0.00 | 0.00 | 74 | 1015.1 |
| 20260901223238 | 29 | 182 | 0.0 | 4.8 | 0.00 | 0.00 | 0.00 | 74 | 1014.8 |
| 20260901222734 | 29 | 94 | 3.2 | 3.2 | 0.00 | 0.00 | 0.00 | 75 | 1015.0 |
| 20260901222230 | 30 | 245 | 0.0 | 4.8 | 0.00 | 0.00 | 0.00 | 72 | 1015.0 |
| 20260901221726 | 30 | 0 | 4.8 | 8.0 | 0.00 | 0.00 | 0.00 | 72 | 1015.1 |
| 20260901221222 | 30 | 59 | 3.2 | 4.8 | 0.00 | 0.00 | 0.00 | 71 | 1015.0 |
| 20260901220721 | 30 | 70 | 0.0 | 3.2 | 0.00 | 0.00 | 0.00 | 69 | 1015.0 |
| 20260901220221 | 31 | 48 | 1.6 | 4.8 | 0.00 | 0.00 | 0.00 | 68 | 1015.1 |
| 20260901215719 | 31 | 86 | 1.6 | 1.6 | 0.00 | 0.00 | 0.00 | 68 | 1015.2 |
| 20260901215213 | 30 | 7 | 1.6 | 4.8 | 0.00 | 0.00 | 0.00 | 69 | 1014.9 |
| 20260901214711 | 30 | 69 | 0.0 | 8.0 | 0.00 | 0.00 | 0.00 | 69 | 1015.1 |
| 20260901214201 | 30 | 98 | 0.0 | 6.4 | 0.00 | 0.00 | 0.00 | 69 | 1014.9 |
| 20260901213700 | 30 | 88 | 3.2 | 8.0 | 0.00 | 0.00 | 0.00 | 69 | 1014.9 |
| 20260901213155 | 30 | 24 | 1.6 | 3.2 | 0.00 | 0.00 | 0.00 | 69 | 1015.0 |
| 20260901212654 | 30 | 20 | 4.8 | 4.8 | 0.00 | 0.00 | 0.00 | 67 | 1014.9 |
| 20260901212151 | 30 | 53 | 3.2 | 3.2 | 0.00 | 0.00 | 0.00 | 67 | 1015.1 |
| 20260901211651 | 30 | 32 | 4.8 | 4.8 | 0.00 | 0.00 | 0.00 | 66 | 1015.1 |
| 20260901211147 | 30 | 42 | 0.0 | 4.8 | 0.00 | 0.00 | 0.00 | 66 | 1015.1 |
| 20260901210643 | 30 | 129 | 3.2 | 6.4 | 0.00 | 0.00 | 0.00 | 67 | 1014.9 |
| 20260901210139 | 30 | 358 | 3.2 | 3.2 | 0.00 | 0.00 | 0.00 | 66 | 1014.8 |
| 20260901205634 | 31 | 94 | 0.0 | 11.3 | 0.00 | 0.00 | 0.00 | 65 | 1015.2 |
| 20260901205129 | 31 | 81 | 0.0 | 4.8 | 0.00 | 0.00 | 0.00 | 62 | 1014.8 |
| 20260901204625 | 31 | 148 | 0.0 | 3.2 | 0.00 | 0.00 | 0.00 | 64 | 1015.2 |
| 20260901204125 | 32 | 169 | 0.0 | 4.8 | 0.00 | 0.00 | 0.00 | 62 | 1015.0 |
| 20260901203620 | 32 | 50 | 3.2 | 4.8 | 0.00 | 0.00 | 0.00 | 61 | 1015.0 |
| 20260901203114 | 31 | 110 | 1.6 | 4.8 | 0.00 | 0.00 | 0.00 | 64 | 1015.2 |
| 20260901202614 | 31 | 27 | 3.2 | 4.8 | 0.00 | 0.00 | 0.00 | 64 | 1015.1 |
| 20260901202110 | 31 | 29 | 3.2 | 3.2 | 0.00 | 0.00 | 0.00 | 63 | 1015.4 |
| 20260901201606 | 31 | 73 | 3.2 | 6.4 | 0.00 | 0.00 | 0.00 | 64 | 1015.4 |
| 20260901201105 | 31 | 15 | 4.8 | 8.0 | 0.00 | 0.00 | 0.00 | 62 | 1015.3 |
| 20260901200604 | 31 | 59 | 3.2 | 4.8 | 0.00 | 0.00 | 0.00 | 63 | 1015.6 |
| 20260901200059 | 31 | 59 | 1.6 | 4.8 | 0.00 | 0.00 | 0.00 | 63 | 1015.5 |
| 20260901195557 | 31 | 52 | 3.2 | 8.0 | 0.00 | 0.00 | 0.00 | 62 | 1015.5 |
| 20260901195057 | 31 | 17 | 4.8 | 6.4 | 0.00 | 0.00 | 0.00 | 62 | 1015.5 |
| 20260901194552 | 31 | 59 | 3.2 | 8.0 | 0.00 | 0.00 | 0.00 | 62 | 1015.6 |
| 20260901194047 | 31 | 24 | 3.2 | 8.0 | 0.00 | 0.00 | 0.00 | 62 | 1015.4 |
| 20260901193542 | 32 | 53 | 6.4 | 6.4 | 0.00 | 0.00 | 0.00 | 61 | 1015.3 |
| 20260901193037 | 32 | 42 | 6.4 | 8.0 | 0.00 | 0.00 | 0.00 | 60 | 1015.3 |
| 20260901192532 | 32 | 18 | 9.7 | 16.1 | 0.00 | 0.00 | 0.00 | 60 | 1015.3 |
| 20260901192028 | 32 | 26 | 8.0 | 9.7 | 0.00 | 0.00 | 0.00 | 61 | 1015.3 |
| 20260901191524 | 32 | 118 | 3.2 | 11.3 | 0.00 | 0.00 | 0.00 | 62 | 1015.4 |
| 20260901191020 | 33 | 37 | 4.8 | 9.7 | 0.00 | 0.00 | 0.00 | 56 | 1015.4 |
| 20260901190515 | 33 | 81 | 3.2 | 4.8 | 0.00 | 0.00 | 0.00 | 57 | 1015.2 |
| 20260901190014 | 32 | 63 | 0.0 | 14.5 | 0.00 | 0.00 | 0.00 | 58 | 1015.1 |
| 20260901185513 | 33 | 23 | 4.8 | 11.3 | 0.00 | 0.00 | 0.00 | 55 | 1015.2 |